Weather in Callao

Peru     12°03′44″S   77°05′42″W
temp.,
°C
wind,
m/s
gust,
m/s
humid.,
%
clouds,
%
prec.,
mm/h
press.,
hPa
HPBL,
m
11 may, tue
tue1101:00+18sw32765 0.0 1012226
04:00+16ssw128845 0.0 1013312
07:00+17wsw218249 0.0 1014392
10:00+19sw317227 0.0 1015524
13:00+21ssw436411 0.0 1012623
16:00+21ssw32635 0.0 1011488
19:00+20sw11695 0.0 1012226
22:00+18ssw11818 0.0 1013254
12 may, wed
wed1201:00+17wsw11824 0.0 1012186
04:00+17w228213 0.0 1011160
07:00+18n11805 0.0 1012150
10:00+20w21676 0.0 1012327
13:00+22wsw32617 0.0 1011453
16:00+22sw31636 0.0 1010408
19:00+19ssw117518 0.0 1012293
22:00+18s118234 0.0 1013258
13 may, thu
thu1301:00+19sw1178100 0.0 1012172
04:00+17sw118568 0.0 1012212
07:00+17sw218641 0.0 1013261
10:00+19wsw217320 0.0 1014367
13:00+22sw32625 0.0 1012455
16:00+21sw32625 0.0 1011380
19:00+19sw21726 0.0 1012249
22:00+19sw117712 0.0 1014213
14 may, fri
fri1401:00+18ssw117822 0.0 1013180
04:00+17ssw118414 0.0 1012183
07:00+17ssw118530 0.0 1014212
10:00+19sw217430 0.0 1014379
13:00+22sw42624 0.0 1012474
16:00+21sw32644 0.0 1011433
19:00+19ssw227716 0.0 1013325
22:00+18ssw227811 0.0 1014274
15 may, sat
sat1501:00+17sw118220 0.0 1014265
04:00+17ssw218627 0.0 1012250
07:00+17sw118527 0.0 1014263
10:00+19w217118 0.0 1015438
13:00+21wsw42647 0.0 1013537
16:00+20sw326812 0.0 1012488
19:00+19sw227610 0.0 1014306
22:00+18s228114 0.0 1015296